FW1711 Weather Reports


time (UTC)temp
C
wind
direction
speed
KPH
gust
KPH
rain 1hr
cm
rain 24hr
cm
rain mn
cm
humidity
%
barometer
mb
20190823131622 26 109 1.6 8.0 0.00 0.00 0.00 40 1025.0
20190823124558 26 146 0.0 8.0 0.00 0.00 0.00 45 1025.2
20190823123113 26 165 1.6 6.4 0.00 0.00 0.00 47 1025.2
20190823121649 26 297 0.0 6.4 0.00 0.00 0.00 47 1025.3
20190823120059 26 158 1.6 8.0 0.00 0.00 0.00 44 1025.8
20190823114616 26 219 4.8 12.9 0.00 0.00 0.00 46 1025.8
20190823113106 26 180 0.0 4.8 0.00 0.00 0.00 46 1025.9
20190823110038 26 190 0.0 6.4 0.00 0.00 0.00 47 1026.1
20190823104518 26 223 3.2 11.3 0.00 0.00 0.00 46 1026.3
20190823103024 25 191 1.6 6.4 0.00 0.00 0.00 47 1026.4
20190823101517 25 161 1.6 8.0 0.00 0.00 0.00 46 1026.6
20190823100030 25 117 0.0 6.4 0.00 0.00 0.00 51 1026.7
20190823094540 24 91 0.0 6.4 0.00 0.00 0.00 49 1026.8
20190823093042 24 188 1.6 3.2 0.00 0.00 0.00 49 1026.8
20190823091517 25 185 0.0 3.2 0.00 0.00 0.00 52 1026.9
20190823090006 24 323 0.0 6.4 0.00 0.00 0.00 54 1027.0
20190823084505 22 132 0.0 3.2 0.00 0.00 0.00 58 1027.0
20190823083002 23 126 0.0 6.4 0.00 0.00 0.00 62 1027.0
20190823081501 22 199 0.0 1.6 0.00 0.00 0.00 64 1027.1
20190823080213 20 207 0.0 6.4 0.00 0.00 0.00 67 1027.1
20190823074706 20 59 0.0 4.8 0.00 0.00 0.00 67 1027.1
20190823073235 20 144 0.0 3.2 0.00 0.00 0.00 67 1027.1
20190823071618 19 163 0.0 3.2 0.00 0.00 0.00 74 1027.1
20190823070202 17 162 0.0 6.4 0.00 0.00 0.00 75 1027.1
20190823064609 17 163 0.0 3.2 0.00 0.00 0.00 77 1027.1
20190823063202 16 159 0.0 3.2 0.00 0.00 0.00 78 1027.1
20190823061638 15 165 0.0 3.2 0.00 0.00 0.00 81 1026.9
20190823060051 15 217 0.0 3.2 0.00 0.00 0.00 84 1026.9
20190823054548 13 211 0.0 3.2 0.00 0.00 0.00 87 1026.9
20190823053119 13 211 0.0 1.6 0.00 0.00 0.00 89 1027.0
20190823051622 12 211 0.0 3.2 0.00 0.00 0.00 91 1027.0
20190823050105 12 221 0.0 0.0 0.00 0.00 0.00 92 1027.0
20190823044557 11 221 0.0 0.0 0.00 0.00 0.00 93 1027.0
20190823043116 11 221 0.0 0.0 0.00 0.00 0.00 93 1026.9
20190823041546 11 221 0.0 0.0 0.00 0.00 0.00 93 1026.9
20190823040119 11 221 0.0 0.0 0.00 0.00 0.00 92 1026.8
20190823034535 11 221 0.0 0.0 0.00 0.00 0.00 92 1026.7
20190823033043 11 221 0.0 0.0 0.00 0.00 0.00 92 1026.7
20190823031533 11 221 0.0 0.0 0.00 0.00 0.00 91 1026.7
20190823024540 11 221 0.0 0.0 0.00 0.00 0.00 91 1026.6
20190823023023 11 221 0.0 0.0 0.00 0.00 0.00 91 1026.5
20190823021538 12 221 0.0 0.0 0.00 0.00 0.00 90 1026.5
20190823020133 12 221 0.0 0.0 0.00 0.00 0.00 90 1026.4
20190823014523 12 221 0.0 0.0 0.00 0.00 0.00 90 1026.4
20190823013021 12 221 0.0 0.0 0.00 0.00 0.00 89 1026.4
20190823011516 12 221 0.0 0.0 0.00 0.00 0.00 90 1026.3
20190823010039 12 221 0.0 0.0 0.00 0.00 0.00 89 1026.4
20190823004507 12 221 0.0 0.0 0.00 0.00 0.00 89 1026.4
20190823003021 13 221 0.0 0.0 0.00 0.00 0.00 88 1026.4
20190823001516 13 221 0.0 0.0 0.00 0.00 0.00 88 1026.5
20190823000006 13 221 0.0 0.0 0.00 0.00 0.00 87 1026.5
20190822234754 13 221 0.0 0.0 0.00 0.00 0.00 88 1026.6
20190822233300 13 221 0.0 0.0 0.00 0.00 0.00 87 1026.7
20190822231701 13 221 0.0 0.0 0.00 0.00 0.00 87 1026.7
20190822230208 13 221 0.0 0.0 0.00 0.00 0.00 86 1026.6
20190822224711 14 221 0.0 0.0 0.00 0.00 0.00 86 1026.7
20190822223225 14 221 0.0 0.0 0.00 0.00 0.00 85 1026.6
20190822221656 14 221 0.0 0.0 0.00 0.00 0.00 85 1026.7
20190822220258 15 221 0.0 0.0 0.00 0.00 0.00 84 1026.6
20190822214722 15 221 0.0 0.0 0.00 0.00 0.00 83 1026.6
20190822213145 15 221 0.0 0.0 0.00 0.00 0.00 82 1026.5
20190822211705 15 221 0.0 0.0 0.00 0.00 0.00 81 1026.6
20190822210139 16 221 0.0 0.0 0.00 0.00 0.00 80 1026.5
20190822204614 16 221 0.0 0.0 0.00 0.00 0.00 79 1026.4
20190822203134 16 221 0.0 0.0 0.00 0.00 0.00 77 1026.6
20190822201622 16 221 0.0 0.0 0.00 0.00 0.00 76 1026.4
20190822200056 17 221 0.0 0.0 0.00 0.00 0.00 75 1026.5
20190822194634 17 221 0.0 0.0 0.00 0.00 0.00 74 1026.5
20190822193155 18 221 0.0 0.0 0.00 0.00 0.00 71 1026.5
20190822191632 18 221 0.0 0.0 0.00 0.00 0.00 68 1026.3
20190822190156 20 221 0.0 1.6 0.00 0.00 0.00 65 1026.1
20190822184629 20 221 0.0 3.2 0.00 0.00 0.00 62 1025.9
20190822183112 21 169 0.0 1.6 0.00 0.00 0.00 59 1025.7
20190822181627 22 198 0.0 4.8 0.00 0.00 0.00 56 1025.5
20190822180058 22 180 0.0 3.2 0.00 0.00 0.00 54 1025.3
20190822174630 22 190 0.0 6.4 0.00 0.00 0.00 54 1025.3
20190822173056 23 180 3.2 8.0 0.00 0.00 0.00 52 1025.2
20190822171556 23 217 1.6 8.0 0.00 0.00 0.00 52 1025.0
20190822170041 23 178 4.8 9.7 0.00 0.00 0.00 49 1025.0
20190822164708 23 223 0.0 6.4 0.00 0.00 0.00 46 1025.0
20190822163115 24 207 4.8 9.7 0.00 0.00 0.00 44 1025.0
20190822161627 24 186 0.0 8.0 0.00 0.00 0.00 44 1025.1
20190822160135 25 211 0.0 6.4 0.00 0.00 0.00 44 1025.1
20190822154609 25 43 1.6 6.4 0.00 0.00 0.00 43 1025.2
20190822153103 25 201 0.0 6.4 0.00 0.00 0.00 42 1025.2
20190822151600 25 188 1.6 6.4 0.00 0.00 0.00 42 1025.3
20190822150122 25 213 0.0 3.2 0.00 0.00 0.00 39 1025.3
20190822144637 25 191 1.6 9.7 0.00 0.00 0.00 40 1025.3
20190822143054 25 130 0.0 9.7 0.00 0.00 0.00 42 1025.4
20190822141544 25 159 1.6 8.0 0.00 0.00 0.00 40 1025.5
20190822140104 25 178 0.0 3.2 0.00 0.00 0.00 40 1025.6
20190822134533 25 236 3.2 8.0 0.00 0.00 0.00 39 1025.7
20190822133120 25 205 1.6 8.0 0.00 0.00 0.00 40 1025.8